Wetbulb
45.75 42.44 38.91 42.61 44.58 45.13 43.23 40.71 39.26 42.13 46.09 44.06 43.74 44.32 46.93 50.34 50.78 52.43 55.80 59.11 58.27 62.22 64.52 67.52 65.38 67.18 71.14 72.18 71.82 72.23 72.32 72.98 72.77 71.97 70.11 69.73 68.91 70.04 72.79 72.99 73.29 72.25 72.49 72.93
42.17 38.87 44.35 46.58 46.53 45.24 43.76 40.57 39.43 43.04 46.31 43.74 44.07 44.04 47.07 49.64 49.84 51.84 58.32 58.85 60.35 61.59 63.85 65.36 66.03 65.79 64.67 69.36 71.66 72.53 72.51 72.77 72.05 71.21 70.86 70.12 70.23 72.21 71.46 70.38 70.47 70.40 68.08 67.59
39.80 42.31 46.81 45.62 44.62 43.39 42.02 39.56 40.16 40.61 44.38 46.01 44.07 42.36 44.89 49.34 50.76 57.44 58.74 58.51 58.77 59.83 60.04 61.86 62.45 63.61 63.72 62.15 71.78 72.60 72.35 72.34 72.04 71.50 72.32 71.73 71.89 70.43 67.45 65.94 65.57 65.40 65.14 64.81
42.02 45.69 44.60 43.71 42.82 43.74 37.83 44.18 43.57 43.25 41.51 36.41 44.32 35.64 42.68 46.93 48.40 55.33 57.35 57.74 58.93 59.72 60.52 61.13 61.12 61.89 62.63 62.12 65.47 72.45 72.66 72.22 72.73 72.66 70.74 70.26 68.82 67.39 65.99 63.90 63.40 63.05 63.24 62.80
40.66 41.16 41.46 41.34 42.69 45.07 40.96 45.40 43.23 43.46 39.48 37.53 40.19 37.18 41.54 46.58 45.67 50.45 54.04 57.20 56.31 58.56 60.08 60.81 61.31 61.78 62.52 63.72 66.11 71.74 71.86 72.08 72.46 71.60 71.73 69.88 65.65 64.78 63.70 62.64 60.61 60.18 59.80 61.04
41.82 45.89 43.74 42.73 46.11 46.13 46.85 43.09 42.72 41.34 37.91 33.33 38.78 39.65 40.34 42.80 45.86 51.33 54.03 56.00 56.52 57.67 59.38 60.09 61.91 62.39 66.29 68.95 69.45 70.26 70.39 70.89 71.51 71.00 70.36 66.88 64.55 63.27 61.44 59.83 58.61 57.93 58.86 60.10
40.22 40.78 44.15 46.43 41.57 44.51 44.21 40.21 30.98 28.65 30.94 30.50 40.27 38.10 40.95 47.20 49.22 53.83 53.66 54.30 55.41 56.79 58.17 59.95 61.96 63.33 65.97 69.56 70.60 70.34 70.37 69.93 70.13 70.55 69.51 65.74 63.94 62.25 60.59 60.36 59.08 57.85 58.49 58.15
34.47 32.62 41.78 45.51 42.74 38.98 41.37 38.43 31.99 27.79 28.85 31.80 41.22 37.27 40.48 49.34 50.88 55.41 56.43 55.33 56.09 56.58 57.95 61.25 61.52 63.56 67.71 69.58 70.17 70.43 69.79 69.45 69.10 67.20 66.65 65.25 64.27 63.28 62.30 60.14 59.35 59.02 58.83 58.39
35.66 36.45 45.56 45.42 45.36 44.86 39.37 37.71 42.98 37.71 37.26 34.96 38.31 41.10 46.66 49.06 50.01 53.84 54.83 55.19 55.28 56.54 56.89 60.16 60.53 66.35 68.01 69.36 69.78 69.59 70.11 68.13 66.48 65.29 62.87 62.60 61.04 60.55 59.58 59.56 59.89 58.67 59.09 60.10
41.87 35.44 42.65 44.28 45.24 45.00 42.13 45.58 37.00 37.70 29.76 29.92 35.42 38.00 38.81 43.87 47.48 51.93 54.23 53.49 55.39 56.56 56.96 57.42 63.97 66.30 68.42 68.90 69.58 69.12 66.58 64.58 64.08 63.22 62.65 61.41 61.30 61.12 60.56 60.45 59.16 58.37 58.72 58.02
42.10 39.08 39.03 42.87 40.41 39.14 38.58 38.84 38.77 40.12 37.13 33.07 32.63 35.95 45.69 45.52 47.36 48.41 51.94 53.97 56.16 56.85 57.26 57.12 59.97 65.01 67.80 68.75 67.66 65.48 63.02 62.17 61.59 61.91 61.47 61.24 61.25 61.23 60.08 59.08 58.00 57.61 56.90 56.11
42.81 38.61 33.80 38.00 44.03 45.08 41.77 39.70 41.30 33.65 36.30 38.70 36.98 36.28 49.58 47.27 49.06 49.97 51.04 54.15 55.72 57.61 58.80 58.32 59.67 62.83 66.00 65.69 64.19 61.82 61.34 61.26 61.54 61.63 61.32 60.41 60.31 59.34 58.12 57.06 56.33 56.03 54.91 54.51
43.80 37.73 29.75 32.93 37.83 41.38 38.07 40.58 41.76 40.51 38.59 35.51 33.32 37.24 50.05 50.44 50.88 50.09 50.50 52.01 54.81 55.46 56.73 58.43 62.79 64.72 64.27 62.80 60.69 60.42 60.71 61.03 61.41 61.11 60.13 59.25 58.20 57.15 55.98 55.36 54.70 54.17 53.04 52.62
48.39 40.10 34.85 31.15 34.42 38.48 37.26 40.34 43.06 40.48 33.94 36.51 37.85 40.87 45.32 47.69 47.73 49.66 54.47 56.07 56.56 57.86 58.04 58.21 60.51 61.75 61.56 60.68 59.95 59.90 60.28 60.65 60.08 59.02 57.55 56.07 55.20 54.88 54.18 53.43 52.63 51.83 51.42 49.53
44.98 39.05 43.06 39.52 41.34 41.52 40.71 40.77 41.96 42.04 41.95 37.93 41.92 41.94 45.76 47.72 50.64 54.87 55.55 55.07 54.65 54.41 55.18 55.75 55.49 55.62 56.25 56.55 56.83 57.92 59.80 59.49 58.51 57.25 56.07 54.94 53.50 52.65 51.60 50.49 49.66 49.55 48.80 48.55
47.11 39.96 42.74 41.63 41.64 41.49 40.24 41.81 43.02 43.47 43.37 43.00 44.46 45.20 50.52 54.56 54.14 53.77 53.67 53.77 53.50 53.33 53.99 54.44 54.98 55.22 54.89 55.35 55.59 55.93 55.87 55.97 55.90 54.38 52.93 51.36 50.12 48.95 47.82 47.20 47.36 47.51 47.22 47.36
44.52 41.56 39.69 36.43 42.57 41.46 35.55 39.96 41.38 44.00 46.64 45.78 39.27 46.79 52.05 51.22 51.49 50.91 52.07 53.80 52.52 52.25 52.15 52.75 52.82 53.66 54.01 54.08 54.19 53.64 52.98 51.38 49.95 48.78 48.43 47.93 47.48 47.28 46.42 46.91 46.74 45.72 45.12 44.43
43.28 41.71 41.28 37.65 40.38 30.98 40.73 46.98 45.75 43.89 48.19 48.38 49.73 50.87 51.99 51.41 51.30 50.65 49.65 45.61 44.76 45.56 45.11 46.16 46.37 47.15 49.87 51.21 49.99 48.86 48.10 47.25 46.73 46.08 46.11 46.57 46.33 45.82 45.22 45.00 43.58 41.95 41.94 41.63
46.59 42.01 37.59 35.33 35.01 41.07 44.76 48.26 45.44 46.14 45.49 50.22 49.32 49.76 50.22 50.27 49.54 47.36 47.70 45.57 43.04 42.82 42.96 42.81 43.64 44.65 45.31 46.17 46.80 46.44 45.21 45.64 45.79 45.54 45.46 45.52 45.26 43.93 43.45 41.93 40.53 40.21 39.98 41.11
47.05 44.15 38.79 36.93 34.13 32.62 42.28 48.72 51.87 51.65 41.67 49.12 48.73 48.80 48.99 49.03 43.23 44.51 45.35 45.73 44.15 44.54 43.95 43.76 44.35 44.40 46.44 46.32 45.49 44.01 43.76 44.30 44.23 45.26 45.17 44.29 43.66 42.41 41.09 39.98 39.18 41.25 41.59 42.68
39.59 39.90 36.60 36.41 34.76 38.27 46.44 50.12 52.37 39.10 41.77 50.27 49.48 49.63 49.14 47.76 47.34 46.85 46.41 44.96 44.95 44.43 44.32 45.66 45.92 45.29 46.03 44.94 43.49 41.91 42.02 41.91 44.33 44.54 43.34 42.20 40.97 39.72 40.03 39.45 40.81 41.27 42.21 42.81
40.35 37.55 36.72 39.33 34.79 33.43 51.29 50.25 45.45 47.67 49.96 52.15 51.49 50.99 48.10 48.21 47.42 46.08 45.47 44.09 44.15 43.44 44.07 44.47 43.44 43.44 45.13 44.17 42.04 39.76 38.87 40.62 42.11 41.56 40.77 39.44 37.71 39.72 40.46 38.55 40.03 41.03 39.25 36.78
40.89 43.58 40.42 41.73 42.03 48.73 51.34 51.10 51.91 51.23 50.92 50.93 50.91 49.70 48.66 47.11 46.56 45.98 45.10 45.41 45.02 44.13 43.69 43.72 41.93 40.36 40.46 40.39 39.74 36.94 37.11 39.07 39.45 38.39 37.04 37.28 37.26 37.73 37.21 36.75 36.50 36.43 34.76 33.71
45.55 49.31 45.25 45.04 45.43 46.58 51.33 53.45 53.67 52.79 50.49 52.49 51.07 49.76 49.06 46.78 46.25 45.42 44.50 44.29 44.08 44.42 42.91 42.64 41.05 39.17 37.68 38.11 37.90 36.99 37.71 37.56 37.75 35.97 35.73 35.86 35.59 35.70 35.78 36.24 36.44 35.55 34.59 32.28
45.59 47.56 43.70 44.82 48.52 48.60 50.26 53.26 55.07 54.47 53.40 51.69 51.17 49.77 48.23 47.77 46.80 46.03 44.17 43.71 43.24 42.99 42.62 41.97 39.98 38.30 37.26 36.94 36.24 37.58 38.04 38.30 37.00 36.80 36.55 35.55 37.86 37.66 37.18 38.01 37.88 37.57 36.34 35.87
48.32 47.10 44.08 41.88 49.30 47.65 48.46 54.28 54.59 52.20 51.42 51.58 50.19 49.07 48.94 47.09 45.27 44.29 42.70 42.68 42.33 41.22 41.30 40.20 38.91 37.24 36.19 35.95 36.41 37.10 38.03 37.94 36.89 36.06 36.30 36.89 36.82 37.18 37.56 37.73 37.51 38.90 37.94 36.95
MSLP
1005.85 1006.03 1005.29 1005.08 1004.85 1005.47 1004.81 1004.44 1003.51 1002.38 1001.59 1001.44 1001.26 1000.71 1000.11 1000.14 1000.75 1001.30 1003.35 1004.76 1005.67 1006.85 1007.05 1007.53 1008.69 1010.45 1008.07 1006.84 1007.40 1007.72 1007.59 1007.99 1008.04 1009.02 1010.07 1010.65 1010.69 1011.16 1011.45 1011.36 1012.06 1012.33 1012.46 1012.64
1006.64 1005.51 1005.49 1005.19 1005.07 1005.15 1004.57 1004.02 1003.18 1002.28 1001.48 1001.47 1001.32 1000.66 1000.46 1000.27 1001.00 1001.92 1004.10 1005.45 1005.94 1006.75 1007.66 1009.20 1009.83 1011.42 1007.18 1008.72 1007.75 1007.69 1007.83 1007.04 1007.99 1009.11 1010.08 1010.38 1010.88 1011.37 1012.16 1011.99 1012.10 1012.82 1012.80 1013.14
1006.74 1005.81 1005.33 1004.83 1004.59 1004.37 1003.82 1003.45 1002.94 1002.24 1001.61 1001.22 1001.33 1001.01 1000.68 1000.49 1001.01 1003.70 1005.19 1005.71 1006.27 1006.45 1007.98 1009.64 1010.19 1010.40 1010.54 1012.22 1007.99 1007.35 1007.11 1007.69 1007.71 1008.88 1010.31 1010.47 1010.79 1011.49 1011.97 1012.77 1012.99 1013.29 1013.10 1013.66
1006.91 1005.58 1004.91 1004.31 1003.87 1003.65 1003.49 1002.68 1002.69 1002.36 1001.93 1001.95 1001.11 1001.23 1000.63 1000.84 1001.39 1003.88 1005.64 1006.23 1006.65 1007.25 1007.60 1009.02 1010.06 1010.08 1009.91 1009.81 1009.19 1008.07 1006.69 1007.38 1008.72 1009.03 1009.84 1010.03 1010.63 1011.64 1012.53 1013.06 1013.32 1013.39 1013.72 1014.22
1006.06 1005.12 1004.28 1003.65 1003.20 1003.31 1002.69 1002.73 1002.82 1002.80 1002.65 1002.69 1001.61 1002.10 1000.74 1000.61 1001.50 1003.30 1004.74 1005.17 1005.69 1006.09 1006.45 1007.28 1008.41 1010.02 1009.41 1011.39 1009.83 1005.49 1007.31 1006.99 1008.70 1008.97 1009.27 1010.07 1011.55 1012.21 1012.53 1013.20 1013.81 1014.11 1014.51 1014.64
1005.70 1004.47 1003.90 1003.59 1003.17 1002.94 1003.07 1003.16 1003.29 1003.34 1003.69 1003.89 1002.78 1001.78 1000.82 1000.92 1001.03 1002.78 1004.18 1004.66 1004.91 1005.80 1006.21 1007.05 1007.48 1008.69 1008.65 1008.67 1007.71 1007.19 1005.14 1008.22 1008.27 1008.55 1009.59 1010.05 1011.09 1011.98 1012.83 1013.49 1014.43 1014.71 1014.78 1014.97
1005.29 1004.09 1003.59 1003.47 1003.26 1003.03 1003.25 1003.86 1005.00 1005.21 1005.19 1004.97 1003.47 1002.87 1001.32 1000.28 1000.22 1001.27 1002.96 1004.46 1004.87 1005.46 1005.80 1005.77 1006.07 1005.99 1006.96 1005.88 1008.22 1008.45 1008.49 1008.33 1008.33 1008.80 1009.47 1010.14 1010.95 1011.94 1012.93 1013.17 1014.04 1014.57 1015.21 1015.55
1004.10 1003.39 1003.01 1002.69 1002.86 1002.41 1002.62 1004.37 1005.70 1006.13 1005.45 1005.01 1004.21 1002.92 1000.87 999.91 999.67 999.99 1001.29 1002.49 1004.01 1004.99 1005.22 1004.89 1004.04 1003.43 1005.71 1005.42 1006.61 1006.59 1007.21 1007.89 1008.94 1009.57 1010.29 1011.42 1011.29 1012.41 1013.11 1013.17 1013.82 1014.45 1015.23 1015.75
1002.85 1001.80 1001.24 1001.11 1001.20 1001.85 1002.55 1003.57 1004.92 1005.97 1005.53 1005.51 1004.05 1002.44 1001.53 1000.32 999.89 1000.56 1000.75 1002.15 1003.07 1003.98 1004.39 1004.41 1003.73 1003.83 1004.61 1005.54 1006.40 1006.68 1008.05 1009.29 1009.95 1010.62 1011.43 1011.73 1012.03 1013.16 1013.24 1013.63 1013.89 1014.83 1015.40 1015.81
1002.75 1001.55 1000.61 1000.54 1000.93 1001.34 1001.85 1002.21 1005.13 1005.99 1005.59 1004.89 1003.83 1002.23 1000.85 999.65 999.14 999.72 1001.07 1001.91 1002.53 1003.18 1003.36 1003.89 1004.34 1003.86 1004.59 1005.27 1006.41 1007.05 1008.75 1009.80 1010.42 1010.59 1011.40 1011.92 1013.03 1013.77 1013.81 1013.82 1014.44 1014.84 1015.78 1016.25
1002.39 1001.86 1001.01 1000.77 1000.73 1000.99 1001.41 1002.08 1003.28 1004.23 1004.37 1004.33 1003.28 1001.17 999.63 999.35 998.69 999.31 999.72 1000.33 1001.67 1002.34 1003.31 1002.96 1003.68 1003.95 1004.30 1004.83 1006.18 1007.10 1008.71 1009.87 1010.25 1010.98 1011.94 1012.70 1013.70 1014.00 1013.88 1014.27 1014.97 1015.51 1016.27 1016.88
1001.87 1001.79 1001.25 1000.90 1000.63 1000.51 1000.94 1001.78 1002.51 1004.47 1004.75 1004.64 1003.72 1001.93 999.55 998.52 997.86 998.41 999.11 999.71 1000.39 1000.76 1001.87 1003.40 1003.86 1003.54 1004.70 1006.29 1007.10 1008.24 1009.49 1010.06 1010.73 1011.54 1012.40 1013.22 1013.51 1014.03 1014.54 1015.23 1015.95 1016.43 1017.04 1017.26
1001.45 1001.71 1002.00 1001.41 1000.96 1000.39 1000.81 1001.31 1001.81 1003.51 1004.88 1004.93 1004.35 1002.22 999.92 998.54 998.65 998.53 999.37 999.94 1000.56 1001.93 1002.92 1005.15 1004.44 1004.75 1005.37 1005.99 1007.54 1008.43 1009.40 1010.16 1010.76 1011.57 1012.57 1013.26 1014.03 1014.92 1015.79 1016.40 1016.73 1017.12 1017.44 1017.65
1001.69 1001.90 1001.77 1001.70 1001.09 1000.97 1000.82 1000.77 1001.52 1002.54 1004.47 1005.80 1005.11 1003.33 1001.11 1000.16 1000.05 1000.47 1001.81 1003.06 1003.73 1004.53 1005.68 1005.81 1004.85 1005.61 1006.59 1007.55 1008.57 1009.11 1009.50 1010.48 1011.37 1012.10 1013.09 1014.03 1015.23 1015.99 1016.68 1016.90 1017.33 1017.75 1018.09 1018.14
1001.56 1001.95 1001.84 1001.26 1000.70 1000.44 1000.07 999.99 1000.61 1002.26 1004.13 1005.71 1005.07 1004.82 1002.45 1002.50 1001.79 1002.91 1003.60 1003.86 1004.55 1005.65 1006.22 1007.06 1007.58 1008.01 1008.39 1009.15 1009.57 1010.31 1011.48 1012.04 1012.63 1013.25 1014.03 1015.03 1015.79 1016.46 1017.07 1017.61 1018.13 1018.36 1018.50 1018.41
1001.97 1002.56 1002.41 1001.52 1000.70 1000.20 999.51 999.60 1000.01 1001.23 1003.40 1005.26 1005.90 1005.02 1004.03 1004.27 1003.64 1004.77 1005.63 1006.17 1007.17 1007.66 1008.53 1009.28 1009.66 1010.28 1010.77 1011.23 1011.67 1011.64 1012.24 1013.27 1013.87 1014.64 1015.10 1015.55 1016.35 1017.33 1018.04 1018.57 1018.64 1018.55 1018.91 1018.81
1003.63 1003.53 1003.63 1002.55 1000.93 1000.05 999.23 999.22 999.47 999.97 1002.56 1004.09 1005.53 1005.94 1005.60 1005.66 1005.76 1007.29 1008.09 1007.91 1008.85 1010.06 1010.72 1010.96 1011.42 1011.97 1012.59 1012.98 1013.19 1013.61 1013.99 1013.75 1015.17 1015.53 1015.71 1016.51 1017.22 1018.21 1018.79 1019.08 1018.94 1019.35 1019.73 1019.34
1004.19 1004.31 1005.21 1004.13 1002.46 1001.07 999.26 998.68 998.88 999.67 1001.97 1004.15 1005.50 1005.63 1006.41 1007.17 1007.85 1008.32 1010.52 1010.97 1011.32 1011.77 1012.27 1012.85 1013.60 1013.71 1013.78 1014.34 1014.65 1014.66 1014.69 1015.27 1016.18 1016.74 1016.88 1017.61 1018.10 1018.76 1019.16 1019.45 1019.85 1020.25 1020.14 1019.73
1003.71 1005.14 1006.21 1005.71 1004.21 1001.49 999.59 999.72 1000.57 1000.31 1003.88 1003.56 1004.47 1005.89 1007.07 1007.92 1009.27 1011.62 1012.49 1013.05 1013.52 1013.41 1013.90 1014.29 1014.68 1015.01 1015.45 1015.77 1015.93 1015.91 1015.97 1016.49 1016.84 1017.32 1017.87 1018.68 1019.06 1019.63 1020.05 1020.35 1020.58 1020.31 1020.20 1019.90
1003.91 1004.84 1006.00 1006.85 1005.65 1002.99 1000.83 1000.24 1001.05 1000.97 1004.66 1005.51 1004.81 1005.71 1006.39 1007.62 1009.67 1012.64 1013.70 1014.17 1014.60 1014.97 1015.31 1015.64 1015.99 1016.35 1016.70 1017.19 1017.25 1017.29 1017.87 1018.12 1018.07 1018.46 1019.12 1019.67 1020.08 1020.21 1020.42 1020.45 1020.51 1020.19 1019.98 1019.53
1005.34 1006.52 1006.80 1006.83 1006.25 1004.27 1001.48 1001.13 1000.67 1001.78 1004.43 1004.92 1004.94 1005.17 1006.39 1007.47 1008.51 1011.83 1013.59 1014.72 1015.27 1016.06 1016.46 1016.71 1016.86 1016.97 1017.53 1018.14 1018.37 1018.94 1019.36 1019.27 1019.47 1019.38 1019.72 1020.31 1020.45 1020.55 1020.39 1020.42 1020.17 1019.96 1019.66 1019.55
1003.73 1004.41 1004.97 1004.97 1005.75 1004.87 1001.34 1000.73 1001.77 1002.85 1003.40 1003.78 1004.88 1005.45 1007.21 1008.75 1010.21 1011.77 1013.49 1014.82 1015.73 1016.28 1016.99 1017.34 1017.83 1018.20 1018.47 1018.99 1019.40 1020.31 1020.49 1020.58 1020.40 1020.26 1020.46 1021.13 1020.97 1020.72 1020.73 1020.45 1020.29 1020.20 1020.41 1020.43
1004.24 1004.63 1004.45 1002.59 1002.60 1002.06 1000.93 1001.07 1001.95 1002.49 1002.61 1004.55 1005.16 1006.21 1006.95 1008.67 1010.66 1012.15 1013.21 1014.59 1015.51 1016.29 1016.85 1017.53 1018.10 1018.81 1019.53 1020.18 1020.81 1021.51 1021.51 1021.27 1021.21 1021.16 1021.37 1021.49 1021.40 1021.35 1021.22 1021.13 1021.06 1021.05 1021.06 1020.97
1005.05 1004.31 1003.68 1003.21 1002.63 1001.57 1000.83 1001.86 1002.71 1003.30 1003.34 1004.20 1005.52 1006.14 1007.56 1009.15 1011.07 1012.26 1013.25 1014.27 1015.31 1016.19 1016.96 1017.65 1018.68 1019.57 1020.59 1021.28 1021.61 1021.84 1022.11 1021.93 1021.72 1021.91 1021.91 1022.00 1022.05 1021.96 1021.72 1021.47 1021.32 1021.45 1021.53 1021.61
1005.56 1005.03 1004.58 1003.81 1003.50 1002.83 1001.56 1001.48 1001.13 1003.07 1003.52 1004.17 1005.54 1006.99 1008.25 1009.41 1011.02 1012.03 1013.12 1014.19 1015.18 1016.19 1017.03 1018.05 1019.31 1020.38 1021.26 1021.73 1022.13 1022.44 1022.53 1022.44 1022.31 1022.53 1022.75 1022.59 1022.43 1022.29 1022.15 1021.84 1021.84 1021.83 1021.93 1022.00
1005.13 1005.37 1005.05 1003.94 1004.00 1004.31 1003.89 1001.86 1001.93 1002.94 1003.91 1004.70 1005.88 1007.75 1008.92 1009.71 1010.80 1012.12 1013.57 1014.67 1015.72 1016.87 1017.84 1018.84 1020.06 1020.86 1021.56 1022.27 1022.68 1022.81 1022.85 1022.89 1023.31 1023.28 1022.94 1022.89 1022.81 1022.63 1022.45 1022.37 1022.31 1022.21 1022.14 1022.31
Wind_Speed
5 5 13 16 17 9 7 11 11 8 17 11 18 15 12 10 7 15 12 10 6 7 7 7 6 11 11 10 9 15 15 12 8 4 4 3 4 3 4 5 10 8 7 7
4 11 8 9 12 16 16 15 13 17 13 10 16 18 13 9 7 5 17 13 11 8 4 13 8 8 17 16 12 10 14 15 11 5 3 3 4 6 6 7 10 8 11 9
6 6 14 17 15 18 16 14 15 12 15 16 13 15 11 8 8 22 15 14 14 18 12 5 11 6 3 31 15 14 17 12 10 9 3 5 10 8 8 6 7 7 10 9
8 15 16 16 18 14 15 18 18 15 12 10 15 11 14 11 8 21 15 11 14 18 17 14 6 9 6 12 26 11 15 17 8 11 7 12 8 9 4 4 6 6 8 8
7 7 10 17 13 14 16 15 15 14 3 5 8 6 13 16 16 7 14 11 9 10 17 16 13 13 21 10 24 16 14 12 7 8 8 6 11 10 5 7 9 7 6 7
14 8 7 8 11 13 10 12 5 4 0 2 9 9 14 9 21 6 11 13 12 9 8 9 11 2 10 15 12 7 8 4 6 8 8 14 16 11 9 8 6 5 4 5
11 13 7 9 7 11 13 5 4 3 1 4 8 4 11 18 21 13 16 18 15 12 10 14 15 9 7 13 8 5 7 8 7 7 10 15 14 10 12 10 6 7 4 3
8 4 12 15 13 5 9 8 7 6 5 7 8 7 11 20 21 18 19 21 18 15 14 16 16 17 18 19 14 11 8 6 8 9 11 10 9 5 4 5 6 5 5 4
4 6 12 8 8 7 6 5 12 5 4 0 5 8 12 20 19 11 20 21 22 19 17 18 14 12 13 14 15 13 9 11 12 10 8 6 8 9 8 9 11 6 5 4
6 2 4 6 7 10 6 15 13 6 9 6 11 8 15 9 18 11 12 10 16 19 17 12 14 17 15 16 13 13 13 12 10 12 9 9 10 10 10 10 9 9 7 6
6 4 4 7 6 8 3 3 3 2 2 3 1 8 7 16 11 12 20 17 20 11 13 11 11 11 16 14 14 18 17 14 13 12 10 11 8 10 10 10 8 8 7 6
2 2 5 7 7 8 6 7 7 5 1 2 6 7 9 4 10 10 11 16 15 8 6 5 9 16 11 16 17 18 15 14 13 12 12 12 11 11 11 9 8 8 7 6
3 3 2 2 6 6 3 5 6 8 2 2 3 6 6 6 5 8 11 10 16 9 7 12 19 18 16 17 15 15 14 15 14 14 14 12 11 10 9 7 7 7 7 6
4 4 6 8 5 4 6 12 7 7 5 2 4 11 3 4 2 11 24 24 22 19 14 9 9 15 16 14 13 11 13 14 14 16 15 13 9 8 7 7 7 7 6 6
4 3 5 6 13 15 16 10 7 6 10 3 6 9 5 8 12 18 20 23 25 24 25 21 18 16 18 17 18 16 13 15 13 14 12 9 8 8 8 8 7 6 6 5
6 4 6 5 19 19 14 12 10 13 17 17 5 9 3 18 23 22 18 22 22 22 22 20 18 17 16 15 14 17 18 13 12 11 12 11 11 8 8 7 7 7 6 5
5 3 6 6 7 5 7 8 7 9 22 22 4 4 6 16 23 18 15 21 22 19 19 19 18 15 12 10 10 11 12 14 11 12 13 11 10 9 7 6 7 8 7 6
2 4 4 5 8 5 3 5 8 6 19 20 18 17 16 17 18 21 16 13 16 16 17 17 13 12 11 9 9 12 14 14 13 12 13 11 10 9 7 8 8 6 4 5
9 6 1 3 4 3 3 8 8 3 9 16 24 21 18 24 21 16 12 12 12 15 13 14 12 11 12 11 10 12 14 13 13 12 11 10 9 6 7 7 5 3 3 4
12 11 7 6 5 2 5 8 10 3 8 4 13 14 22 15 6 7 12 12 10 11 9 11 11 11 11 11 12 14 12 10 11 9 10 8 6 6 6 4 3 3 2 3
6 7 11 7 2 11 10 4 5 5 10 10 8 11 12 4 7 19 16 12 11 11 12 10 11 11 10 11 13 12 9 11 8 9 10 7 7 5 5 4 2 4 4 5
4 8 6 5 5 6 6 2 6 5 9 15 15 15 13 18 20 19 16 14 13 13 12 11 10 12 11 12 11 9 9 6 7 8 7 6 6 6 6 6 5 8 9 7
4 3 5 4 7 10 4 8 8 18 19 9 17 17 22 21 18 17 16 15 15 13 9 11 12 14 13 12 10 7 5 7 6 8 7 6 7 6 6 6 6 5 6 6
4 5 4 5 7 7 8 12 7 6 13 14 21 23 21 23 19 17 14 13 11 8 12 13 14 14 12 10 9 8 7 6 7 7 7 6 6 6 6 4 4 4 4 4
4 7 6 5 5 5 9 4 22 13 18 23 21 21 21 22 18 15 14 13 13 13 13 13 12 12 12 10 9 10 8 7 8 7 6 6 5 5 6 6 3 3 4 4
3 2 3 3 5 3 11 19 23 23 21 21 24 20 16 17 17 15 14 12 14 14 13 13 12 12 12 10 10 9 7 6 4 3 4 4 4 4 5 5 5 7 4 7
Wind_Direction
214 196 209 220 223 247 255 254 231 253 240 194 231 247 231 223 233 252 165 146 91 102 126 21 293 287 286 151 148 152 157 158 124 114 113 113 173 124 106 87 97 92 82 69
290 233 231 232 226 237 245 244 244 245 244 201 221 248 241 207 227 193 134 141 133 106 110 116 103 284 1 327 171 151 155 140 137 126 177 185 133 99 82 79 85 79 79 78
226 239 229 232 220 225 239 245 248 226 241 229 212 250 231 236 213 99 106 121 115 123 120 125 108 98 333 323 206 159 149 144 135 143 157 133 113 109 105 92 88 90 83 77
235 251 217 234 221 213 229 236 244 262 220 218 203 237 232 236 255 125 145 144 153 148 140 146 126 108 84 267 293 181 156 148 150 152 153 138 134 124 120 123 106 87 83 86
227 240 254 227 223 222 238 245 240 255 248 260 226 218 222 234 238 154 138 161 154 155 145 149 157 160 147 171 279 205 168 135 148 146 138 119 108 121 119 105 97 98 97 103
274 264 219 253 237 239 268 247 305 265 98 311 253 212 236 233 235 139 134 158 166 159 144 140 153 162 227 188 223 195 135 123 127 115 131 121 123 121 120 120 124 120 106 86
248 242 243 225 244 261 251 68 16 314 117 203 308 3 242 223 253 161 161 164 161 160 166 157 159 166 225 154 163 139 134 141 136 125 125 124 126 129 142 140 148 123 95 84
220 178 189 206 227 230 213 132 137 184 169 229 242 204 244 239 246 160 170 163 155 171 169 178 167 161 191 157 164 151 149 122 97 87 96 123 118 123 117 122 120 113 121 146
290 200 172 193 193 185 185 146 178 249 95 134 191 246 299 282 256 202 169 165 166 179 182 181 189 178 148 146 161 144 129 117 111 106 106 91 99 102 104 95 95 102 111 86
295 326 198 214 182 244 223 194 191 213 173 177 208 214 222 217 222 183 149 173 180 185 197 178 178 161 157 160 149 112 112 112 122 100 89 90 95 100 95 88 85 79 72 58
242 242 205 178 196 239 276 182 82 210 181 71 184 230 240 228 184 162 151 181 178 149 192 164 146 143 161 141 125 124 121 128 115 99 99 97 89 85 81 76 68 69 64 51
285 304 166 217 194 227 249 290 120 127 353 236 161 277 284 291 163 134 133 122 133 109 96 325 169 161 147 131 128 128 130 122 112 112 102 94 84 74 73 67 61 60 51 36
323 294 128 262 301 305 275 268 139 111 78 27 66 274 325 129 160 123 138 132 127 127 136 234 177 166 135 119 118 118 122 113 108 98 93 80 76 72 70 71 63 56 47 26
99 246 166 192 215 212 252 256 166 109 86 48 256 295 84 173 205 77 68 77 76 80 82 68 96 90 96 96 108 115 110 109 101 94 90 87 82 85 79 70 60 52 36 37
159 275 352 211 192 213 237 232 208 127 120 69 292 297 295 356 81 89 86 83 73 68 64 62 67 73 82 81 79 69 79 91 96 94 93 92 87 77 67 57 52 50 42 25
21 314 0 288 203 218 221 226 241 162 146 203 295 263 38 66 67 68 82 80 76 79 76 70 68 64 67 78 81 91 99 103 105 99 96 80 78 69 60 48 51 45 20 360
359 92 19 293 319 306 211 207 237 163 171 147 98 254 87 67 72 59 60 88 94 92 84 79 77 68 60 62 75 88 74 79 77 79 73 65 67 64 51 49 43 32 21 17
200 73 30 282 332 282 243 199 207 197 139 136 107 88 85 83 75 73 42 65 75 77 80 72 62 58 57 64 63 72 76 73 69 64 64 58 62 57 47 47 46 22 2 351
147 114 78 344 304 271 337 49 50 44 73 115 121 110 108 101 84 77 84 69 81 81 75 72 60 50 56 58 57 68 65 67 66 57 59 52 58 53 63 54 28 350 337 306
79 90 95 347 292 245 244 6 24 155 98 171 123 137 145 150 119 128 126 113 79 68 72 85 82 67 48 65 67 65 63 65 64 59 73 68 50 68 69 56 345 304 312 335
113 130 185 193 83 291 265 330 322 91 184 180 167 148 139 100 124 131 122 108 100 98 90 82 66 74 73 66 68 64 58 49 46 60 65 53 39 62 57 9 334 344 348 19
189 158 190 167 124 280 221 66 93 190 147 158 170 159 120 113 115 121 127 127 128 124 121 108 96 75 74 82 76 61 49 31 48 53 65 56 41 32 10 11 9 32 33 19
256 61 288 144 179 197 267 79 309 177 153 160 128 127 124 125 126 133 134 140 138 143 134 112 98 89 77 73 75 77 33 37 44 53 42 57 32 36 21 29 22 50 36 22
284 335 357 336 317 181 147 148 192 206 137 140 132 127 132 129 137 141 141 136 138 145 131 111 103 94 88 84 76 66 54 36 50 50 37 30 42 37 18 16 28 48 40 32
231 326 315 308 65 312 274 98 148 147 124 118 119 127 132 136 142 137 123 119 117 113 106 106 105 103 99 88 75 72 63 52 62 46 44 30 37 26 6 358 28 42 43 52
161 352 327 266 49 298 270 132 128 124 129 128 127 130 124 121 117 111 106 101 99 100 100 94 95 94 85 77 77 68 54 50 57 58 42 37 31 18 17 27 29 16 24 65